^^
Station Historical Data
 
Daily Summary for December 17, 2018 Units:  Metric    English   Both
« Previous Day
Next Day »
Daily Weekly Monthly Yearly Custom
  Current: High: Low: Average:
Temperature: -13.8 °C -17.8 °C -16.3 °C -14.6 °C
Dew Point: -14.5 °C -17.8 °C -16.4 °C -14.9 °C
Humidity: 92% Humidity% 90% 96%
Wind Speed: 3.1km/h 0km/h 0km/h 16.4km/h
Wind Gust: 0.3km/h 0km/h - -
WindSW - - South
Pressure: 34516.9 hPa 0 hPa 34218.9 hPa -
Precipitation: 88.9 mm      
Historical Graphs
 
 
Tabular Data for December 17, 2018
Time Temperature Dew Point Pressure Wind Wind Speed Wind Gust Humidity Rainfall Rate (Hourly) solar Conditions
-17.8 °C -17.8 °C 0 hPa Calm     Humidity% 0 mm SolarRadiationWatts/m^2 W/m2 Conditions
00:03 -16 °C -16.2 °C 34242.6 hPa South 45.9 km/h 33.6 km/h 98% 0 mm 0.00 W/m2 RA
00:07 -16 °C -16.2 °C 34242.6 hPa SE 26.9 km/h 17.5 km/h 98% 0 mm 0.00 W/m2 RA
00:14 -16 °C -16.2 °C 34239.2 hPa SSE 11.9 km/h 4.7 km/h 98% 0 mm 0.00 W/m2 OVC
00:18 -16 °C -16.2 °C 34239.2 hPa SSE 20.9 km/h 11.6 km/h 98% 0 mm 0.00 W/m2 OVC
00:24 -16 °C -16.2 °C 34239.2 hPa SSE 24.3 km/h 14 km/h 98% 0 mm 0.00 W/m2 OVC
00:28 -16.1 °C -16.2 °C 34242.6 hPa SSE 32.8 km/h 15.3 km/h 98% 0 mm 0.00 W/m2 OVC
00:34 -16.1 °C -16.2 °C 34242.6 hPa East 41.7 km/h 12.9 km/h 98% 0 mm 0.00 W/m2 OVC
00:39 -16.1 °C -16.3 °C 34239.2 hPa SE 29.8 km/h 19.5 km/h 98% 0 mm 0.00 W/m2 OVC
00:43 -16.2 °C -16.3 °C 34239.2 hPa ESE 23.8 km/h 12.4 km/h 98% 0 mm 0.00 W/m2 OVC
00:49 -16.2 °C -16.3 °C 34242.6 hPa South 20.9 km/h 11.6 km/h 98% 0 mm 0.00 W/m2 OVC
00:53 -16.1 °C -16.3 °C 34235.8 hPa SSE 11.9 km/h 1.6 km/h 98% 0 mm 0.00 W/m2 OVC
00:59 -16.1 °C -16.2 °C 34235.8 hPa ESE 26.9 km/h 17.4 km/h 98% 0 mm 0.00 W/m2 OVC
01:04 -16.1 °C -16.2 °C 34239.2 hPa South 29.8 km/h 16.9 km/h 98% 0 mm 0.00 W/m2 OVC
01:09 -16.1 °C -16.3 °C 34239.2 hPa SSE 9 km/h 3.9 km/h 98% 0 mm 0.00 W/m2 OVC
01:14 -16.1 °C -16.3 °C 34242.6 hPa SSE 34.9 km/h 22.9 km/h 98% 0 mm 0.00 W/m2 OVC
01:19 -16.2 °C -16.3 °C 34239.2 hPa SSE 26.9 km/h 19.2 km/h 98% 0 mm 0.00 W/m2 OVC
01:24 -16.2 °C -16.3 °C 34242.6 hPa SE 34.9 km/h 15.8 km/h 98% 0 mm 0.00 W/m2 OVC
01:29 -16.2 °C -16.3 °C 34239.2 hPa South 29.5 km/h 10.3 km/h 98% 0 mm 0.00 W/m2 OVC
01:34 -16.2 °C -16.3 °C 34235.8 hPa SSE 35.7 km/h 23.8 km/h 98% 0 mm 0.00 W/m2 OVC
01:39 -16.2 °C -16.4 °C 34239.2 hPa SSE 32.3 km/h 23.8 km/h 98% 0 mm 0.00 W/m2 OVC
01:43 -16.2 °C -16.4 °C 34235.8 hPa South 26.9 km/h 17.9 km/h 98% 0 mm 0.00 W/m2 OVC
01:49 -16.3 °C -16.4 °C 34239.2 hPa SE 24.3 km/h 14.5 km/h 98% 0 mm 0.00 W/m2 OVC
01:53 -16.3 °C -16.4 °C 34239.2 hPa SE 35.7 km/h 10.9 km/h 98% 0 mm 0.00 W/m2 OVC
01:59 -16.3 °C -16.4 °C 34239.2 hPa SE 18.8 km/h 11.6 km/h 98% 0 mm 0.00 W/m2 OVC
02:03 -16.3 °C -16.4 °C 34239.2 hPa SSE 26.9 km/h 12.9 km/h 98% 0 mm 0.00 W/m2 OVC
02:08 -16.2 °C -16.4 °C 34235.8 hPa SSE 26.9 km/h 17.9 km/h 98% 0 mm 0.00 W/m2 OVC
02:14 -16.3 °C -16.4 °C 34232.5 hPa SSE 21.6 km/h 9.7 km/h 98% 0 mm 0.00 W/m2 OVC
02:18 -16.2 °C -16.4 °C 34232.5 hPa SE 32.8 km/h 21.7 km/h 98% 0 mm 0.00 W/m2 OVC
02:23 -16.2 °C -16.4 °C 34232.5 hPa SSE 24.3 km/h 15.3 km/h 98% 0 mm 0.00 W/m2 OVC
02:28 -16.2 °C -16.4 °C 34235.8 hPa SE 11.9 km/h 2.1 km/h 98% 0 mm 0.00 W/m2 OVC
02:33 -16.2 °C -16.4 °C 34232.5 hPa SE 15 km/h 5.6 km/h 98% 0 mm 0.00 W/m2 OVC
02:38 -16.2 °C -16.3 °C 34232.5 hPa SSE 18.8 km/h 11.1 km/h 98% 0 mm 0.00 W/m2 OVC
02:44 -16.2 °C -16.3 °C 34232.5 hPa South 18.8 km/h 10.6 km/h 98% 0 mm 0.00 W/m2 OVC
02:49 -16.2 °C -16.3 °C 34235.8 hPa SSE 15 km/h 2.9 km/h 98% 0 mm 0.00 W/m2 OVC
02:53 -16.1 °C -16.3 °C 34235.8 hPa SE 11.9 km/h 6 km/h 98% 0 mm 0.00 W/m2 OVC
02:59 -16.1 °C -16.3 °C 34232.5 hPa ESE 15 km/h 4.7 km/h 98% 0 mm 0.00 W/m2 OVC
03:04 -16.1 °C -16.3 °C 34232.5 hPa SSE 11.9 km/h 2.6 km/h 98% 0 mm 0.00 W/m2 OVC
03:09 -16.1 °C -16.2 °C 34232.5 hPa SSE 11.9 km/h 3.7 km/h 98% 0 mm 0.00 W/m2 OVC
03:14 -16.1 °C -16.2 °C 34235.8 hPa SE 6 km/h 1.6 km/h 98% 0 mm 0.00 W/m2 OVC
03:18 -16.1 °C -16.2 °C 34235.8 hPa SSE 13.5 km/h 6.8 km/h 98% 0 mm 0.00 W/m2 OVC
03:24 -16.1 °C -16.2 °C 34235.8 hPa SE 15 km/h 4.2 km/h 98% 5.08 mm 0.00 W/m2 RA
03:29 -16.1 °C -16.2 °C 34235.8 hPa SE 15 km/h 8.2 km/h 98% 5.08 mm 0.00 W/m2 RA
03:34 -16.1 °C -16.2 °C 34235.8 hPa South 15 km/h 7.6 km/h 98% 5.08 mm 0.00 W/m2 OVC
03:39 -16.1 °C -16.2 °C 34235.8 hPa SE 18.8 km/h 10.6 km/h 98% 5.08 mm 0.00 W/m2 OVC
03:44 -16.1 °C -16.2 °C 34235.8 hPa South 15 km/h 9.7 km/h 98% 5.08 mm 0.00 W/m2 OVC
03:48 -16 °C -16.2 °C 34235.8 hPa SE 13.5 km/h 8.2 km/h 98% 5.08 mm 0.00 W/m2 OVC
03:54 -16 °C -16.2 °C 34235.8 hPa SSE 16.1 km/h 7.2 km/h 98% 5.08 mm 0.00 W/m2 OVC
03:58 -16 °C -16.2 °C 34232.5 hPa SSE 24.3 km/h 12.4 km/h 98% 5.08 mm 0.00 W/m2 OVC
04:04 -15.9 °C -16.1 °C 34229.1 hPa South 17.9 km/h 10.9 km/h 98% 5.08 mm 0.00 W/m2 OVC
04:09 -15.9 °C -16.1 °C 34229.1 hPa ESE 18.8 km/h 10.6 km/h 98% 5.08 mm 0.00 W/m2 OVC
04:13 -15.9 °C -16.1 °C 34229.1 hPa South 16.1 km/h 9.7 km/h 98% 5.08 mm 0.00 W/m2 OVC
04:18 -15.9 °C -16 °C 34229.1 hPa SSE 15 km/h 4.7 km/h 98% 5.08 mm 0.00 W/m2 OVC
04:23 -15.9 °C -16 °C 34229.1 hPa SSE 9 km/h 2.1 km/h 98% 0 mm 0.00 W/m2 OVC
04:28 -15.8 °C -16 °C 34225.7 hPa SSE 15 km/h 6.3 km/h 98% 0 mm 0.00 W/m2 OVC
04:33 -15.8 °C -15.9 °C 34225.7 hPa SSE 16.1 km/h 9.3 km/h 98% 0 mm 0.00 W/m2 OVC
04:39 -15.8 °C -15.9 °C 34225.7 hPa SSE 9 km/h 2.6 km/h 98% 0 mm 0.00 W/m2 OVC
04:43 -15.7 °C -15.9 °C 34222.3 hPa SE 18.8 km/h 10.6 km/h 98% 0 mm 0.00 W/m2 OVC
04:49 -15.7 °C -15.9 °C 34222.3 hPa SSE 15 km/h 7.6 km/h 98% 0 mm 0.00 W/m2 OVC
04:53 -15.7 °C -15.9 °C 34222.3 hPa SE 15 km/h 3.9 km/h 98% 0 mm 0.00 W/m2 OVC
04:59 -15.7 °C -15.8 °C 34225.7 hPa SE 10.9 km/h 2.6 km/h 98% 0 mm 0.00 W/m2 OVC
05:04 -15.6 °C -15.8 °C 34222.3 hPa SSE 18.8 km/h 10.3 km/h 98% 0 mm 0.00 W/m2 OVC
05:09 -15.6 °C -15.7 °C 34222.3 hPa SSE 15 km/h 6.3 km/h 98% 0 mm 0.00 W/m2 OVC
05:13 -15.6 °C -15.7 °C 34222.3 hPa SE 18.8 km/h 9.7 km/h 98% 0 mm 0.00 W/m2 OVC
05:19 -15.5 °C -15.7 °C 34218.9 hPa SSE 18.8 km/h 10.6 km/h 98% 0 mm 0.00 W/m2 OVC
05:24 -15.5 °C -15.7 °C 34218.9 hPa SSE 11.9 km/h 6.4 km/h 98% 0 mm 0.00 W/m2 OVC
05:28 -15.5 °C -15.7 °C 34222.3 hPa SE 15 km/h 7.6 km/h 98% 0 mm 0.00 W/m2 OVC
05:34 -15.5 °C -15.7 °C 34222.3 hPa SE 16.1 km/h 6.3 km/h 98% 0 mm 0.00 W/m2 OVC
05:39 -15.4 °C -15.6 °C 34222.3 hPa SE 11.9 km/h 1.6 km/h 98% 0 mm 0.00 W/m2 OVC
05:44 -15.4 °C -15.6 °C 34222.3 hPa SSE 24.3 km/h 12.9 km/h 98% 0 mm 0.00 W/m2 OVC
05:49 -15.4 °C -15.6 °C 34222.3 hPa SSE 16.1 km/h 10.3 km/h 98% 0 mm 0.00 W/m2 OVC
05:54 -15.4 °C -15.6 °C 34225.7 hPa SSE 15 km/h 3.4 km/h 98% 0 mm 0.00 W/m2 OVC
05:59 -15.4 °C -15.6 °C 34225.7 hPa SE 15 km/h 2.9 km/h 98% 5.08 mm 0.00 W/m2 RA
06:04 -15.4 °C -15.5 °C 34225.7 hPa SE 18.8 km/h 12.2 km/h 98% 5.08 mm 0.00 W/m2 RA
06:08 -15.4 °C -15.5 °C 34222.3 hPa SSE 17.9 km/h 8.9 km/h 98% 5.08 mm 0.00 W/m2 OVC
06:14 -15.3 °C -15.5 °C 34225.7 hPa SSE 11.9 km/h 4.7 km/h 98% 5.08 mm 0.00 W/m2 OVC
06:19 -15.3 °C -15.4 °C 34229.1 hPa East 13.5 km/h 4.3 km/h 98% 5.08 mm 0.00 W/m2 OVC
06:24 -15.2 °C -15.4 °C 34225.7 hPa SSE 24.3 km/h 13.5 km/h 98% 5.08 mm 0.00 W/m2 OVC
06:29 -15.2 °C -15.3 °C 34225.7 hPa SSE 18.8 km/h 10.9 km/h 98% 5.08 mm 0.00 W/m2 OVC
06:34 -15.2 °C -15.3 °C 34229.1 hPa SE 24.3 km/h 12.4 km/h 98% 5.08 mm 0.00 W/m2 OVC
06:39 -15.2 °C -15.3 °C 34229.1 hPa SSE 11.9 km/h 6.4 km/h 98% 5.08 mm 0.00 W/m2 OVC
06:44 -15.1 °C -15.3 °C 34232.5 hPa SSE 20.9 km/h 10.3 km/h 98% 5.08 mm 0.00 W/m2 OVC
06:48 -15.1 °C -15.2 °C 34232.5 hPa SSE 26.9 km/h 12.4 km/h 98% 5.08 mm 0.00 W/m2 OVC
06:54 -15.1 °C -15.2 °C 34232.5 hPa South 15 km/h 7.6 km/h 98% 10.16 mm 0.00 W/m2 RA
06:58 -15.1 °C -15.2 °C 34232.5 hPa SSE 21.6 km/h 7.6 km/h 98% 5.08 mm 0.00 W/m2 RA
07:03 -15.1 °C -15.2 °C 34235.8 hPa SSE 11.9 km/h 7.7 km/h 98% 5.08 mm 0.00 W/m2 OVC
07:08 -15.1 °C -15.2 °C 34235.8 hPa SE 17.9 km/h 6.4 km/h 98% 5.08 mm 0.00 W/m2 OVC
07:13 -15 °C -15.2 °C 34235.8 hPa SSE 13.5 km/h 6.4 km/h 98% 10.16 mm 0.00 W/m2 RA
07:19 -14.9 °C -15.1 °C 34235.8 hPa SE 16.1 km/h 11.4 km/h 98% 10.16 mm 0.00 W/m2 OVC
07:23 -14.9 °C -15.1 °C 34235.8 hPa SSE 26.9 km/h 9.3 km/h 98% 15.24 mm 0.00 W/m2 RA
07:29 -14.9 °C -15.1 °C 34232.5 hPa South 13.5 km/h 4.2 km/h 98% 15.24 mm 0.00 W/m2 RA
07:34 -14.9 °C -15.1 °C 34235.8 hPa SE 17.9 km/h 10.1 km/h 98% 20.32 mm 0.00 W/m2 RA
07:38 -14.8 °C -15 °C 34235.8 hPa SE 15 km/h 6.3 km/h 98% 20.32 mm 0.00 W/m2 RA
07:43 -14.8 °C -15 °C 34235.8 hPa SE 24.3 km/h 11.1 km/h 98% 25.4 mm 0.00 W/m2 RA
07:49 -14.8 °C -14.9 °C 34239.2 hPa SSE 11.9 km/h 7.6 km/h 98% 20.32 mm 0.00 W/m2 RA
07:53 -14.8 °C -14.9 °C 34242.6 hPa SE 17.9 km/h 5 km/h 98% 20.32 mm 0.00 W/m2 OVC
07:59 -14.8 °C -14.9 °C 34239.2 hPa SE 9 km/h 6.8 km/h 98% 25.4 mm 0.00 W/m2 RA
08:03 -14.8 °C -14.9 °C 34242.6 hPa SSE 26.9 km/h 14.2 km/h 98% 25.4 mm 0.00 W/m2 RA
08:09 -14.7 °C -14.9 °C 34242.6 hPa SSE 18.8 km/h 12.9 km/h 98% 25.4 mm 0.00 W/m2 RA
08:14 -14.7 °C -14.8 °C 34242.6 hPa SSE 15 km/h 9.3 km/h 98% 30.48 mm 0.00 W/m2 RA
08:19 -14.7 °C -14.8 °C 34246 hPa South 16.1 km/h 7.7 km/h 98% 35.56 mm 0.00 W/m2 RA
08:24 -14.6 °C -14.8 °C 34246 hPa SSE 26.9 km/h 16.3 km/h 98% 30.48 mm 0.00 W/m2 RA
08:29 -14.6 °C -14.7 °C 34249.4 hPa SSE 29.8 km/h 12.7 km/h 98% 35.56 mm 0.00 W/m2 RA
08:34 -14.6 °C -14.7 °C 34249.4 hPa SSE 23.8 km/h 15.3 km/h 98% 30.48 mm 0.00 W/m2 RA
08:39 -14.6 °C -14.7 °C 34252.8 hPa SSE 16.1 km/h 4.7 km/h 98% 35.56 mm 0.00 W/m2 -RA
08:44 -14.5 °C -14.7 °C 34252.8 hPa SSE 21.6 km/h 15.6 km/h 98% 30.48 mm 0.00 W/m2 -RA
08:49 -14.5 °C -14.6 °C 34256.2 hPa West 9 km/h 3.7 km/h 98% 30.48 mm 0.00 W/m2 -RA
08:54 -14.5 °C -14.7 °C 34259.5 hPa WSW 6 km/h 1.6 km/h 98% 30.48 mm 0.00 W/m2 -RA
08:59 -14.5 °C -14.6 °C 34262.9 hPa WSW 5.6 km/h 1.6 km/h 98% 30.48 mm 0.00 W/m2 -RA
09:04 -14.4 °C -14.6 °C 34262.9 hPa SSE 11.9 km/h 3.7 km/h 98% 30.48 mm 0.00 W/m2 -RA
09:09 -14.4 °C -14.6 °C 34262.9 hPa SSE 21.6 km/h 14.8 km/h 98% 25.4 mm 0.00 W/m2 -RA
09:14 -14.4 °C -14.6 °C 34266.3 hPa SSE 15 km/h 6.8 km/h 98% 25.4 mm 0.00 W/m2 -RA
09:18 -14.3 °C -14.5 °C 34269.7 hPa South 10.9 km/h 6.3 km/h 98% 25.4 mm 5.00 W/m2 -RA
09:23 -14.3 °C -14.4 °C 34273.1 hPa South 6 km/h 1.8 km/h 98% 20.32 mm 5.00 W/m2 -RA
09:29 -14.3 °C -14.4 °C 34279.9 hPa South 18.8 km/h 10.3 km/h 98% 20.32 mm 7.00 W/m2 -RA
09:34 -14.3 °C -14.4 °C 34279.9 hPa SSE 18.8 km/h 8.9 km/h 98% 20.32 mm 11.00 W/m2 -RA
09:38 -14.2 °C -14.3 °C 34283.3 hPa SSW 17.9 km/h 5.5 km/h 98% 15.24 mm 12.00 W/m2 -RA
09:43 -14.2 °C -14.3 °C 34283.3 hPa South 15 km/h 4.7 km/h 98% 15.24 mm 12.00 W/m2 -RA
09:49 -14.1 °C -14.3 °C 34286.6 hPa South 15 km/h 6.9 km/h 98% 15.24 mm 11.00 W/m2 -RA
09:54 -14.1 °C -14.2 °C 34290 hPa South 18.8 km/h 13.7 km/h 98% 15.24 mm 9.00 W/m2 -RA
09:58 -14 °C -14.2 °C 34290 hPa SSE 18.8 km/h 10.1 km/h 98% 15.24 mm 14.00 W/m2 -RA
10:04 -14 °C -14.2 °C 34293.4 hPa SW 6 km/h 0.3 km/h 98% 10.16 mm 19.00 W/m2 -RA
10:08 -14 °C -14.2 °C 34296.8 hPa South 10.9 km/h 4.3 km/h 98% 10.16 mm 21.00 W/m2 -RA
10:13 -14 °C -14.1 °C 34296.8 hPa SSW 16.1 km/h 4.7 km/h 98% 5.08 mm 18.00 W/m2 -RA
10:19 -13.9 °C -14.1 °C 34303.6 hPa Calm     98% 10.16 mm 18.00 W/m2 -RA
10:23 -13.9 °C -14.1 °C 34307 hPa SSW 8 km/h 1.3 km/h 98% 10.16 mm 16.00 W/m2 -RA
10:29 -13.9 °C -14.1 °C 34307 hPa South 20.9 km/h 10.3 km/h 98% 5.08 mm 26.00 W/m2 -RA
10:34 -13.9 °C -14.1 °C 34310.3 hPa South 15 km/h 3.7 km/h 98% 5.08 mm 23.00 W/m2 -RA
10:39 -13.9 °C -14.1 °C 34313.7 hPa Calm     98% 5.08 mm 30.00 W/m2 -RA
10:44 -13.8 °C -14 °C 34317.1 hPa SW 15 km/h 4.2 km/h 98% 5.08 mm 21.00 W/m2 -RA
10:49 -13.8 °C -14 °C 34317.1 hPa South 15 km/h 3.7 km/h 98% 5.08 mm 19.00 W/m2 -RA
10:54 -13.8 °C -14 °C 34317.1 hPa SW 3.1 km/h 0.3 km/h 98% 5.08 mm 23.00 W/m2 -RA
10:59 -13.8 °C -13.9 °C 34320.5 hPa SW 6 km/h 1.3 km/h 98% 5.08 mm 25.00 W/m2 -RA
11:04 -13.8 °C -13.9 °C 34323.9 hPa SW 9 km/h 3.7 km/h 98% 5.08 mm 23.00 W/m2 -RA
11:09 -13.8 °C -13.9 °C 34323.9 hPa WSW 17.9 km/h 5.6 km/h 98% 5.08 mm 21.00 W/m2 -RA
11:14 -13.7 °C -13.9 °C 34327.3 hPa SSW 16.1 km/h 7.2 km/h 98% 5.08 mm 25.00 W/m2 -RA
11:19 -13.7 °C -13.8 °C 34327.3 hPa WSW 20.9 km/h 7.2 km/h 98% 5.08 mm 33.00 W/m2 -RA
11:24 -13.7 °C -13.8 °C 34330.7 hPa West 23.8 km/h 4.7 km/h 98% 0 mm 19.00 W/m2 -RA
11:28 -13.7 °C -13.8 °C 34330.7 hPa WSW 14.5 km/h 3.4 km/h 98% 0 mm 12.00 W/m2 -RA
11:34 -13.7 °C -13.8 °C 34330.7 hPa SW 9 km/h 0.8 km/h 98% 0 mm 19.00 W/m2 -RA
11:39 -13.7 °C -13.8 °C 34334 hPa West 17.4 km/h 8.2 km/h 98% 0 mm 25.00 W/m2 BKN
11:44 -13.7 °C -13.8 °C 34334 hPa WSW 15 km/h 6.3 km/h 98% 0 mm 25.00 W/m2 BKN
11:49 -13.7 °C -13.8 °C 34337.4 hPa Calm     98% 0 mm 21.00 W/m2 BKN
11:53 -13.7 °C -13.8 °C 34337.4 hPa WSW 6 km/h 1 km/h 98% 0 mm 18.00 W/m2 BKN
11:58 -13.7 °C -13.8 °C 34340.8 hPa WSW 11.9 km/h 2.3 km/h 98% 0 mm 16.00 W/m2 BKN
12:04 -13.7 °C -13.9 °C 34340.8 hPa SW 9 km/h 3.1 km/h 98% 0 mm 18.00 W/m2 BKN
12:08 -13.7 °C -13.9 °C 34340.8 hPa WSW 14.5 km/h 8.2 km/h 98% 0 mm 19.00 W/m2 BKN
12:13 -13.7 °C -13.9 °C 34344.2 hPa SW 3.1 km/h 0.3 km/h 98% 0 mm 25.00 W/m2 BKN
12:19 -13.7 °C -13.9 °C 34344.2 hPa SSW 6 km/h   98% 0 mm 35.00 W/m2 BKN
12:24 -13.7 °C -13.9 °C 34344.2 hPa SW 15 km/h 8 km/h 98% 0 mm 40.00 W/m2 BKN
12:28 -13.7 °C -13.8 °C 34351 hPa SW 20.9 km/h 2.6 km/h 98% 0 mm 60.00 W/m2 BKN
12:33 -13.7 °C -13.8 °C 34351 hPa SW 3.1 km/h 0.5 km/h 98% 0 mm 49.00 W/m2 BKN
12:39 -13.7 °C -13.8 °C 34351 hPa WSW 23.8 km/h 5.6 km/h 98% 0 mm 47.00 W/m2 BKN
12:44 -13.7 °C -13.8 °C 34357.7 hPa WSW 11.6 km/h 1.6 km/h 98% 0 mm 49.00 W/m2 BKN
12:48 -13.7 °C -13.8 °C 34357.7 hPa WSW 9 km/h 2.9 km/h 98% 0 mm 49.00 W/m2 BKN
12:54 -13.7 °C -13.8 °C 34364.5 hPa WSW 8.9 km/h 1 km/h 98% 0 mm 46.00 W/m2 BKN
12:58 -13.7 °C -13.8 °C 34361.1 hPa SW 13.5 km/h 6.4 km/h 98% 0 mm 39.00 W/m2 BKN
13:03 -13.7 °C -13.8 °C 34364.5 hPa SW 15 km/h 2.9 km/h 98% 0 mm 39.00 W/m2 BKN
13:09 -13.7 °C -13.8 °C 34367.9 hPa SW 15 km/h 1.3 km/h 98% 0 mm 30.00 W/m2 BKN
13:14 -13.7 °C -13.8 °C 34367.9 hPa West 15 km/h 4.3 km/h 98% 0 mm 33.00 W/m2 BKN
13:18 -13.7 °C -13.8 °C 34371.3 hPa WSW 11.9 km/h 0.3 km/h 98% 0 mm 51.00 W/m2 BKN
13:24 -13.7 °C -13.8 °C 34378.1 hPa West 17.4 km/h 2.6 km/h 98% 0 mm 51.00 W/m2 BKN
13:29 -13.7 °C -13.8 °C 34378.1 hPa WSW 21.6 km/h 8.9 km/h 98% 0 mm 33.00 W/m2 BKN
13:34 -13.6 °C -13.8 °C 34378.1 hPa SW 15 km/h 4.7 km/h 98% 0 mm 37.00 W/m2 BKN
13:39 -13.6 °C -13.7 °C 34378.1 hPa WSW 26.9 km/h 11.1 km/h 98% 0 mm 39.00 W/m2 BKN
13:44 -13.5 °C -13.7 °C 34378.1 hPa WSW 23.3 km/h 6.9 km/h 98% 0 mm 40.00 W/m2 BKN
13:49 -13.5 °C -13.7 °C 34378.1 hPa South 6 km/h 0.3 km/h 97% 0 mm 39.00 W/m2 BKN
13:54 -13.4 °C -13.7 °C 34381.4 hPa WNW 16.1 km/h 4.3 km/h 97% 0 mm 56.00 W/m2 BKN
13:59 -13.4 °C -13.7 °C 34381.4 hPa West 26.2 km/h 12.2 km/h 97% 0 mm 65.00 W/m2 BKN
14:04 -13.4 °C -13.8 °C 34384.8 hPa WSW 20.9 km/h 8 km/h 96% 0 mm 69.00 W/m2 BKN
14:08 -13.4 °C -13.7 °C 34388.2 hPa SSW 26.9 km/h 5.5 km/h 96% 0 mm 49.00 W/m2 BKN
14:14 -13.3 °C -13.8 °C 34395 hPa SW 23.8 km/h 5.6 km/h 95% 0 mm 53.00 W/m2 BKN
14:19 -13.3 °C -13.8 °C 34395 hPa West 26.9 km/h 7.2 km/h 95% 0 mm 58.00 W/m2 BKN
14:24 -13.3 °C -13.8 °C 34401.8 hPa SW 9 km/h 1.3 km/h 94% 0 mm 51.00 W/m2 BKN
14:28 -13.3 °C -13.8 °C 34405.1 hPa SW 15 km/h 2.6 km/h 94% 0 mm 46.00 W/m2 BKN
14:33 -13.3 °C -13.8 °C 34408.5 hPa SSW 8.9 km/h 2.1 km/h 94% 0 mm 33.00 W/m2 BKN
14:38 -13.2 °C -13.8 °C 34408.5 hPa WSW 6 km/h 1.3 km/h 93% 0 mm 44.00 W/m2 BKN
14:44 -13.2 °C -13.8 °C 34408.5 hPa West 8.9 km/h 0.8 km/h 93% 0 mm 69.00 W/m2 BKN
14:48 -13.2 °C -13.8 °C 34411.9 hPa WSW 15 km/h 0.3 km/h 93% 0 mm 54.00 W/m2 BKN
14:53 -13.2 °C -13.9 °C 34415.3 hPa West 9 km/h 0.8 km/h 92% 0 mm 53.00 W/m2 BKN
14:59 -13.2 °C -13.9 °C 34415.3 hPa SW 17.9 km/h 4.7 km/h 92% 0 mm 72.00 W/m2 BKN
15:03 -13.2 °C -13.8 °C 34418.7 hPa SW 9 km/h 2.1 km/h 92% 0 mm 53.00 W/m2 BKN
15:08 -13.2 °C -13.9 °C 34422.1 hPa SW 26.9 km/h 9.3 km/h 91% 0 mm 28.00 W/m2 BKN
15:14 -13.2 °C -13.9 °C 34425.5 hPa WSW 15 km/h 2.6 km/h 91% 0 mm 33.00 W/m2 BKN
15:18 -13.2 °C -13.9 °C 34425.5 hPa SW 18.8 km/h 5.6 km/h 91% 0 mm 21.00 W/m2 BKN
15:23 -13.2 °C -14.1 °C 34428.8 hPa SSW 17.9 km/h 6.8 km/h 90% 0 mm 16.00 W/m2 BKN
15:29 -13.3 °C -14.1 °C 34435.6 hPa West 29 km/h 8 km/h 90% 0 mm 14.00 W/m2 BKN
15:34 -13.3 °C -14.2 °C 34439 hPa WSW 11.6 km/h 2.6 km/h 90% 0 mm 12.00 W/m2 BKN
15:39 -13.3 °C -14.2 °C 34439 hPa SSW 13.5 km/h 1.8 km/h 90% 0 mm 11.00 W/m2 BKN
15:43 -13.3 °C -14.2 °C 34445.8 hPa West 15 km/h 5.5 km/h 90% 0 mm 12.00 W/m2 BKN
15:49 -13.4 °C -14.2 °C 34449.2 hPa WSW 9 km/h 2.6 km/h 90% 0 mm 11.00 W/m2 BKN
15:54 -13.4 °C -14.2 °C 34452.6 hPa South 9 km/h 2.3 km/h 90% 0 mm 7.00 W/m2 BKN
15:59 -13.4 °C -14.1 °C 34459.3 hPa SW 15 km/h 2.9 km/h 91% 0 mm 7.00 W/m2 BKN
16:04 -13.4 °C -14.1 °C 34459.3 hPa SW 20.9 km/h 1.6 km/h 91% 0 mm 5.00 W/m2 BKN
16:08 -13.4 °C -14.2 °C 34462.7 hPa SSW 18.8 km/h 4.7 km/h 91% 0 mm 7.00 W/m2 BKN
16:14 -13.4 °C -14.1 °C 34466.1 hPa SSW 15 km/h 2.6 km/h 91% 0 mm 5.00 W/m2 BKN
16:19 -13.4 °C -14.1 °C 34466.1 hPa SW 15 km/h 3.7 km/h 91% 0 mm 0.00 W/m2 BKN
16:24 -13.4 °C -14.1 °C 34466.1 hPa WNW 21.6 km/h 5.5 km/h 91% 0 mm 0.00 W/m2 BKN
16:29 -13.4 °C -14.2 °C 34469.5 hPa SW 20.9 km/h 1.8 km/h 91% 0 mm 0.00 W/m2 BKN
16:34 -13.4 °C -14.2 °C 34472.9 hPa WSW 21.6 km/h 8.2 km/h 91% 0 mm 0.00 W/m2 BKN
16:39 -13.4 °C -14.2 °C 34472.9 hPa West 17.9 km/h 5.1 km/h 91% 0 mm 0.00 W/m2 OVC
16:44 -13.4 °C -14.1 °C 34472.9 hPa WSW 17.9 km/h 4.2 km/h 91% 0 mm 0.00 W/m2 OVC
16:49 -13.4 °C -14.1 °C 34472.9 hPa SW 3.1 km/h   91% 0 mm 0.00 W/m2 OVC
16:54 -13.4 °C -14.1 °C 34476.3 hPa WSW 15 km/h 3.1 km/h 91% 0 mm 0.00 W/m2 OVC
16:59 -13.4 °C -14.1 °C 34479.6 hPa WSW 20.9 km/h 2.3 km/h 91% 0 mm 0.00 W/m2 OVC
17:03 -13.4 °C -14.2 °C 34479.6 hPa Calm     91% 0 mm 0.00 W/m2 OVC
17:08 -13.4 °C -14.2 °C 34483 hPa SSW 16.1 km/h 6.4 km/h 91% 0 mm 0.00 W/m2 OVC
17:14 -13.4 °C -14.2 °C 34483 hPa SW 9 km/h 2.9 km/h 91% 0 mm 0.00 W/m2 OVC
17:18 -13.4 °C -14.2 °C 34486.4 hPa SW 20.4 km/h 7.2 km/h 91% 0 mm 0.00 W/m2 OVC
17:23 -13.4 °C -14.2 °C 34489.8 hPa SW 21.6 km/h 5.6 km/h 91% 0 mm 0.00 W/m2 OVC
17:28 -13.4 °C -14.2 °C 34489.8 hPa West 11.9 km/h 2.9 km/h 91% 0 mm 0.00 W/m2 OVC
17:33 -13.4 °C -14.2 °C 34493.2 hPa WSW 5.6 km/h 0.8 km/h 91% 0 mm 0.00 W/m2 OVC
17:38 -13.5 °C -14.3 °C 34493.2 hPa SW 2.6 km/h   91% 0 mm 0.00 W/m2 OVC
17:44 -13.5 °C -14.3 °C 34496.6 hPa WSW 8.9 km/h 1.3 km/h 91% 0 mm 0.00 W/m2 OVC
17:48 -13.6 °C -14.3 °C 34500 hPa West 17.9 km/h 1 km/h 91% 0 mm 0.00 W/m2 OVC
17:53 -13.6 °C -14.4 °C 34503.3 hPa WSW 3.1 km/h   91% 0 mm 0.00 W/m2 OVC
17:58 -13.7 °C -14.4 °C 34510.1 hPa WSW 2.9 km/h   91% 0 mm 0.00 W/m2 OVC
18:04 -13.7 °C -14.3 °C 34510.1 hPa SSW 13.5 km/h 3.1 km/h 92% 0 mm 0.00 W/m2 OVC
18:09 -13.7 °C -14.3 °C 34510.1 hPa SSW 9 km/h 1.3 km/h 92% 0 mm 0.00 W/m2 OVC
18:13 -13.7 °C -14.4 °C 34513.5 hPa SW 8 km/h 1.3 km/h 92% 0 mm 0.00 W/m2 OVC
18:19 -13.8 °C -14.4 °C 34516.9 hPa SW 15 km/h 2.1 km/h 92% 0 mm 0.00 W/m2 OVC
18:24 -13.8 °C -14.4 °C 34513.5 hPa Calm     92% 0 mm 0.00 W/m2 OVC
18:28 -13.8 °C -14.5 °C 34516.9 hPa SW 3.1 km/h 0.3 km/h 92% 0 mm 0.00 W/m2 OVC
Juneau County Weather
Compliments of Weather Underground - 2.75 mb